User: anonymous   Login
Location: Casco Volunteer Fire Department
(44.5576°N, 87.6146°W)
Time: 13:45:55
(UTC+00:00)
Language:

Cosmos 1933 Rocket - Orbit

View from above orbital plane
View from above orbital plane
View from above satellite
View from above satellite

Ground track
Ground track

The orbit is defined by the following mean orbital elements,

1 18959U          26067.00742303 +.00000000 +00000-0 +78692-4 0 00001
2 18959  82.5398 171.2241 0017408  64.0096 296.2911 14.85673883    05
Epoch (UTC): 08 March 2026 00:10:41
Eccentricity: 0.0017408
inclination: 82.5398°
perigee height: 599 km
apogee height: 624 km
right ascension of ascending node: 171.2241°
argument of perigee: 64.0096°
revolutions per day: 14.85673883
mean anomaly at epoch: 296.2911°

The dashed part of the orbit path shows where the satellite is in the earth's shadow,  

DLR